Location: Cedar Brake
(32.2526°N, 97.8459°W)
Time: 20:15:50
(UTC+00:00)

Cosmos 158 Rocket - Pass Details

Date: 22 April 2026
Orbit: 694 x 786 km, 74.0° (Epoch: 21 May)

Event Time Altitude Azimuth Distance (km) Brightness Sun altitude
Exits shadow 10:49:20 - 195° (SSW) 2,642 6.4 -13.7°
Reaches altitude 10° 10:50:17 10° 195° (SSW) 2,272 6.1 -13.6°
Maximum altitude 10:55:28 89° 108° (ESE) 773 4.0 -12.6°
Drops below altitude 10° 11:00:47 10° 17° (NNE) 2,334 7.1 -11.5°
Sets 11:03:12 0° 17° (NNE) 3,272 7.9 -11.1°
